sat.trackr.live / text

‹ back to catalog

COSMOS 2532 (RODNIK-S *)

NORAD 43753 · 2018-097C

PAYLOAD ACTIVE UNKNOWN

§ Identity

Operator
Country
CIS
Launch date
2018-11-30
Launch site
PLMSC
Launch vehicle
Mass (kg)
RCS (m²)

External: N2YO · Heavens-Above · Gunter

§ Orbital elements

Epoch: 2026-09-20T04:05:28.175136Z

Period
115.86 min
Inclination
82.5169°
Eccentricity
0.0016858
Mean motion
12.42912033 rev/d
Perigee alt
1,481.0 km
Apogee alt
1,507.6 km
Semi-major
7,872.4 km
B*
6.9479e-5
RAAN
163.1826°
Arg perigee
208.0555°
Mean anomaly
151.9618°
Rev number
35,407

§ Raw data

COSMOS 2532 (RODNIK-S *)1 43753U 18097C   26263.17046499  .00000019  00000+0  69479-4 0  99942 43753  82.5169 163.1826 0016858 208.0555 151.9618 12.42912033354072

JSON: /api/v1/satellites/43753 · /tle

For live sub-satellite position, see the globe view (requires WebGL).

§ Visibility from observer

Set your observer location to see the next 7 days of passes ≥ 10°. The values pass through the URL so the page stays shareable.

No JS? Fill the form by hand. The geolocation button needs JavaScript.

§ Radio — SatNOGS DB

ModeDescriptionDownlinkUplink
FM UHF Unknown 387.175 MHz
FM UHF Unknown 388.687 MHz

2 transmitters · refreshed weekly from db.satnogs.org